| time (UTC) | temp F | wind direction | speed MPH | gust MPH | rain 1hr in | rain 24hr in | rain mn in | humidity % | barometer mb |
| 20260902152541 | 89 | 0 | 2.0 | 14.0 | 0.00 | 0.00 | 0.00 | 70 | 1015.2 |
| 20260902152040 | 88 | 0 | 0.0 | 13.0 | 0.00 | 0.00 | 0.00 | 71 | 1015.3 |
| 20260902151556 | 87 | 0 | 0.0 | 15.0 | 0.00 | 0.00 | 0.00 | 72 | 1015.2 |
| 20260902151038 | 87 | 0 | 2.0 | 18.0 | 0.00 | 0.00 | 0.00 | 71 | 1015.3 |
| 20260902150541 | 87 | 255 | 3.0 | 18.0 | 0.00 | 0.00 | 0.00 | 72 | 1015.2 |
| 20260902145538 | 87 | 248 | 1.0 | 13.0 | 0.00 | 0.00 | 0.00 | 73 | 1015.3 |
| 20260902145037 | 86 | 0 | 0.0 | 12.0 | 0.00 | 0.00 | 0.00 | 74 | 1015.1 |
| 20260902144603 | 85 | 0 | 0.0 | 12.0 | 0.00 | 0.00 | 0.00 | 75 | 1015.2 |
| 20260902144037 | 85 | 0 | 0.0 | 8.0 | 0.00 | 0.00 | 0.00 | 76 | 1015.3 |
| 20260902143538 | 85 | 0 | 0.0 | 2.0 | 0.00 | 0.00 | 0.00 | 77 | 1015.4 |
| 20260902143057 | 84 | 0 | 0.0 | 0.0 | 0.00 | 0.00 | 0.00 | 78 | 1015.4 |
| 20260902142538 | 83 | 0 | 0.0 | 0.0 | 0.00 | 0.00 | 0.00 | 78 | 1015.7 |
| 20260902142038 | 83 | 0 | 0.0 | 0.0 | 0.00 | 0.00 | 0.00 | 79 | 1015.4 |
| 20260902141607 | 83 | 0 | 0.0 | 0.0 | 0.00 | 0.00 | 0.00 | 80 | 1015.5 |
| 20260902141038 | 82 | 0 | 0.0 | 0.0 | 0.00 | 0.00 | 0.00 | 81 | 1015.5 |
| 20260902140540 | 82 | 0 | 0.0 | 0.0 | 0.00 | 0.00 | 0.00 | 81 | 1015.5 |
| 20260902140103 | 81 | 0 | 0.0 | 0.0 | 0.00 | 0.00 | 0.00 | 82 | 1015.4 |
| 20260902135537 | 81 | 0 | 0.0 | 0.0 | 0.00 | 0.00 | 0.00 | 82 | 1015.4 |
| 20260902135036 | 81 | 0 | 0.0 | 0.0 | 0.00 | 0.00 | 0.00 | 82 | 1015.5 |
| 20260902134604 | 80 | 0 | 0.0 | 0.0 | 0.00 | 0.00 | 0.00 | 83 | 1015.4 |
| 20260902134037 | 80 | 0 | 0.0 | 0.0 | 0.00 | 0.00 | 0.00 | 83 | 1015.4 |
| 20260902133537 | 80 | 0 | 0.0 | 0.0 | 0.00 | 0.00 | 0.00 | 83 | 1015.4 |
| 20260902133100 | 80 | 0 | 0.0 | 0.0 | 0.00 | 0.00 | 0.00 | 83 | 1015.4 |
| 20260902132538 | 80 | 0 | 0.0 | 4.0 | 0.00 | 0.00 | 0.00 | 83 | 1015.3 |
| 20260902132037 | 80 | 0 | 0.0 | 4.0 | 0.00 | 0.00 | 0.00 | 84 | 1015.2 |
| 20260902131607 | 80 | 0 | 0.0 | 0.0 | 0.00 | 0.00 | 0.00 | 84 | 1015.2 |
| 20260902131039 | 79 | 0 | 0.0 | 0.0 | 0.00 | 0.00 | 0.00 | 84 | 1015.2 |
| 20260902130538 | 79 | 0 | 0.0 | 0.0 | 0.00 | 0.00 | 0.00 | 84 | 1015.0 |
| 20260902130058 | 79 | 0 | 0.0 | 0.0 | 0.00 | 0.00 | 0.00 | 84 | 1015.0 |
| 20260902125540 | 79 | 0 | 0.0 | 0.0 | 0.00 | 0.00 | 0.00 | 85 | 1014.9 |
| 20260902125038 | 79 | 0 | 0.0 | 0.0 | 0.00 | 0.00 | 0.00 | 85 | 1014.6 |
| 20260902124604 | 79 | 0 | 0.0 | 0.0 | 0.00 | 0.00 | 0.00 | 85 | 1014.6 |
| 20260902124037 | 78 | 0 | 0.0 | 0.0 | 0.00 | 0.00 | 0.00 | 85 | 1014.4 |
| 20260902123537 | 78 | 0 | 0.0 | 0.0 | 0.00 | 0.00 | 0.00 | 85 | 1014.5 |
| 20260902123105 | 78 | 0 | 0.0 | 0.0 | 0.00 | 0.00 | 0.00 | 85 | 1014.2 |
| 20260902122538 | 78 | 0 | 0.0 | 0.0 | 0.00 | 0.00 | 0.00 | 85 | 1014.2 |
| 20260902122037 | 78 | 0 | 0.0 | 0.0 | 0.00 | 0.00 | 0.00 | 85 | 1014.3 |
| 20260902121605 | 78 | 0 | 0.0 | 0.0 | 0.00 | 0.00 | 0.00 | 85 | 1014.3 |
| 20260902121038 | 78 | 0 | 0.0 | 0.0 | 0.00 | 0.00 | 0.00 | 85 | 1014.2 |
| 20260902120538 | 78 | 0 | 0.0 | 0.0 | 0.00 | 0.00 | 0.00 | 85 | 1014.2 |
| 20260902120056 | 78 | 0 | 0.0 | 0.0 | 0.00 | 0.00 | 0.00 | 85 | 1014.1 |
| 20260902115537 | 77 | 0 | 0.0 | 0.0 | 0.00 | 0.00 | 0.00 | 85 | 1014.1 |
| 20260902115038 | 77 | 0 | 0.0 | 0.0 | 0.00 | 0.00 | 0.00 | 85 | 1014.1 |
| 20260902114602 | 77 | 0 | 0.0 | 0.0 | 0.00 | 0.00 | 0.00 | 85 | 1014.0 |
| 20260902114037 | 77 | 0 | 0.0 | 0.0 | 0.00 | 0.00 | 0.00 | 85 | 1014.1 |
| 20260902113541 | 77 | 0 | 0.0 | 0.0 | 0.00 | 0.00 | 0.00 | 85 | 1014.2 |
| 20260902113111 | 77 | 0 | 0.0 | 0.0 | 0.00 | 0.00 | 0.00 | 84 | 1014.1 |
| 20260902112537 | 77 | 0 | 0.0 | 0.0 | 0.00 | 0.00 | 0.00 | 85 | 1014.2 |
| 20260902112040 | 77 | 0 | 0.0 | 0.0 | 0.00 | 0.00 | 0.00 | 85 | 1014.2 |
| 20260902111601 | 77 | 0 | 0.0 | 0.0 | 0.00 | 0.00 | 0.00 | 85 | 1014.1 |
| 20260902111037 | 77 | 0 | 0.0 | 0.0 | 0.00 | 0.00 | 0.00 | 85 | 1014.2 |
| 20260902110538 | 77 | 0 | 0.0 | 0.0 | 0.00 | 0.00 | 0.00 | 85 | 1014.2 |
| 20260902110101 | 77 | 0 | 0.0 | 0.0 | 0.00 | 0.00 | 0.00 | 85 | 1014.2 |
| 20260902105540 | 77 | 0 | 0.0 | 0.0 | 0.00 | 0.00 | 0.00 | 85 | 1014.2 |
| 20260902105037 | 77 | 0 | 0.0 | 0.0 | 0.00 | 0.00 | 0.00 | 86 | 1014.2 |
| 20260902104559 | 77 | 0 | 0.0 | 0.0 | 0.00 | 0.00 | 0.00 | 86 | 1014.2 |
| 20260902104038 | 77 | 0 | 0.0 | 0.0 | 0.00 | 0.00 | 0.00 | 86 | 1014.2 |
| 20260902103537 | 77 | 0 | 0.0 | 0.0 | 0.00 | 0.00 | 0.00 | 86 | 1014.1 |
| 20260902103056 | 77 | 0 | 0.0 | 0.0 | 0.00 | 0.00 | 0.00 | 86 | 1014.2 |
| 20260902102538 | 77 | 0 | 0.0 | 0.0 | 0.00 | 0.00 | 0.00 | 86 | 1014.2 |
| 20260902102037 | 77 | 0 | 0.0 | 0.0 | 0.00 | 0.00 | 0.00 | 86 | 1014.2 |
| 20260902101604 | 77 | 0 | 0.0 | 0.0 | 0.00 | 0.00 | 0.00 | 86 | 1014.2 |
| 20260902101037 | 77 | 0 | 0.0 | 0.0 | 0.00 | 0.00 | 0.00 | 86 | 1014.2 |
| 20260902100539 | 77 | 0 | 0.0 | 0.0 | 0.00 | 0.00 | 0.00 | 86 | 1014.4 |
| 20260902100100 | 77 | 0 | 0.0 | 0.0 | 0.00 | 0.00 | 0.00 | 86 | 1014.3 |
| 20260902095538 | 77 | 0 | 0.0 | 0.0 | 0.00 | 0.00 | 0.00 | 86 | 1014.3 |
| 20260902095037 | 77 | 0 | 0.0 | 0.0 | 0.00 | 0.00 | 0.00 | 86 | 1014.3 |
| 20260902094600 | 77 | 0 | 0.0 | 0.0 | 0.00 | 0.00 | 0.00 | 86 | 1014.1 |
| 20260902094038 | 77 | 0 | 0.0 | 0.0 | 0.00 | 0.00 | 0.00 | 86 | 1014.1 |
| 20260902093536 | 77 | 0 | 0.0 | 0.0 | 0.00 | 0.00 | 0.00 | 86 | 1014.1 |
| 20260902093053 | 77 | 0 | 0.0 | 0.0 | 0.00 | 0.00 | 0.00 | 86 | 1014.1 |
| 20260902092539 | 77 | 0 | 0.0 | 0.0 | 0.00 | 0.00 | 0.00 | 86 | 1014.1 |
| 20260902092038 | 77 | 0 | 0.0 | 0.0 | 0.00 | 0.00 | 0.00 | 86 | 1014.1 |
| 20260902091558 | 77 | 0 | 0.0 | 0.0 | 0.00 | 0.00 | 0.00 | 86 | 1014.0 |
| 20260902091038 | 77 | 0 | 0.0 | 0.0 | 0.00 | 0.00 | 0.00 | 86 | 1014.0 |
| 20260902090538 | 76 | 0 | 0.0 | 0.0 | 0.00 | 0.00 | 0.00 | 86 | 1014.0 |
| 20260902090049 | 76 | 0 | 0.0 | 0.0 | 0.00 | 0.00 | 0.00 | 86 | 1014.0 |
| 20260902085537 | 76 | 0 | 0.0 | 0.0 | 0.00 | 0.00 | 0.00 | 86 | 1014.0 |
| 20260902085037 | 76 | 0 | 0.0 | 0.0 | 0.00 | 0.00 | 0.00 | 86 | 1014.1 |
| 20260902084604 | 76 | 0 | 0.0 | 0.0 | 0.00 | 0.00 | 0.00 | 86 | 1013.8 |
| 20260902084040 | 76 | 0 | 0.0 | 0.0 | 0.00 | 0.00 | 0.00 | 86 | 1013.8 |
| 20260902083540 | 76 | 0 | 0.0 | 0.0 | 0.00 | 0.00 | 0.00 | 86 | 1013.8 |
| 20260902083055 | 76 | 0 | 0.0 | 0.0 | 0.00 | 0.00 | 0.00 | 86 | 1013.7 |
| 20260902082540 | 76 | 0 | 0.0 | 0.0 | 0.00 | 0.00 | 0.00 | 86 | 1013.7 |
| 20260902082038 | 76 | 0 | 0.0 | 0.0 | 0.00 | 0.00 | 0.00 | 87 | 1013.7 |
| 20260902081559 | 76 | 0 | 0.0 | 0.0 | 0.00 | 0.00 | 0.00 | 87 | 1013.8 |
| 20260902081038 | 76 | 0 | 0.0 | 0.0 | 0.00 | 0.00 | 0.00 | 87 | 1013.8 |
| 20260902080538 | 76 | 0 | 0.0 | 0.0 | 0.00 | 0.00 | 0.00 | 87 | 1013.8 |
| 20260902080107 | 76 | 0 | 0.0 | 0.0 | 0.00 | 0.00 | 0.00 | 87 | 1013.8 |
| 20260902075537 | 76 | 0 | 0.0 | 0.0 | 0.00 | 0.00 | 0.00 | 87 | 1013.9 |
| 20260902075040 | 76 | 0 | 0.0 | 0.0 | 0.00 | 0.00 | 0.00 | 87 | 1013.9 |
| 20260902074557 | 76 | 0 | 0.0 | 0.0 | 0.00 | 0.00 | 0.00 | 87 | 1014.0 |
| 20260902074037 | 75 | 0 | 0.0 | 0.0 | 0.00 | 0.00 | 0.00 | 88 | 1014.0 |
| 20260902073538 | 75 | 0 | 0.0 | 0.0 | 0.00 | 0.00 | 0.00 | 87 | 1014.2 |
| 20260902073056 | 75 | 0 | 0.0 | 0.0 | 0.00 | 0.00 | 0.00 | 87 | 1014.3 |
| 20260902072538 | 76 | 0 | 0.0 | 0.0 | 0.00 | 0.00 | 0.00 | 87 | 1014.4 |
| 20260902072038 | 76 | 0 | 0.0 | 0.0 | 0.00 | 0.00 | 0.00 | 87 | 1014.3 |
| 20260902071602 | 76 | 0 | 0.0 | 0.0 | 0.00 | 0.00 | 0.00 | 87 | 1014.5 |
| 20260902071042 | 76 | 0 | 0.0 | 0.0 | 0.00 | 0.00 | 0.00 | 87 | 1014.6 |
| 20260902070537 | 76 | 0 | 0.0 | 0.0 | 0.00 | 0.00 | 0.00 | 87 | 1014.6 |
| 20260902070106 | 76 | 0 | 0.0 | 0.0 | 0.00 | 0.00 | 0.00 | 87 | 1014.6 |
| 20260902065540 | 76 | 0 | 0.0 | 0.0 | 0.00 | 0.00 | 0.00 | 87 | 1014.6 |
| 20260902065041 | 76 | 0 | 0.0 | 0.0 | 0.00 | 0.00 | 0.00 | 87 | 1014.7 |
| 20260902064606 | 76 | 0 | 0.0 | 0.0 | 0.00 | 0.00 | 0.00 | 87 | 1014.6 |
| 20260902064038 | 76 | 0 | 0.0 | 0.0 | 0.00 | 0.00 | 0.00 | 87 | 1014.5 |
| 20260902063538 | 76 | 0 | 0.0 | 0.0 | 0.00 | 0.00 | 0.00 | 87 | 1014.5 |
| 20260902063058 | 76 | 0 | 0.0 | 0.0 | 0.00 | 0.00 | 0.00 | 87 | 1014.6 |
| 20260902062537 | 76 | 0 | 0.0 | 0.0 | 0.00 | 0.00 | 0.00 | 87 | 1014.4 |
| 20260902062038 | 76 | 0 | 0.0 | 0.0 | 0.00 | 0.00 | 0.00 | 87 | 1014.5 |
| 20260902061612 | 76 | 0 | 0.0 | 0.0 | 0.00 | 0.00 | 0.00 | 87 | 1014.4 |
| 20260902061040 | 76 | 0 | 0.0 | 0.0 | 0.00 | 0.00 | 0.00 | 87 | 1014.3 |
| 20260902060539 | 76 | 0 | 0.0 | 0.0 | 0.00 | 0.00 | 0.00 | 87 | 1014.4 |
| 20260902060103 | 76 | 0 | 0.0 | 0.0 | 0.00 | 0.00 | 0.00 | 87 | 1014.4 |
| 20260902055544 | 76 | 0 | 0.0 | 0.0 | 0.00 | 0.00 | 0.00 | 87 | 1014.4 |
| 20260902055038 | 76 | 0 | 0.0 | 0.0 | 0.00 | 0.00 | 0.00 | 87 | 1014.4 |
| 20260902054601 | 76 | 0 | 0.0 | 0.0 | 0.00 | 0.00 | 0.00 | 87 | 1014.5 |
| 20260902054036 | 76 | 0 | 0.0 | 0.0 | 0.00 | 0.00 | 0.00 | 87 | 1014.4 |
| 20260902053537 | 76 | 0 | 0.0 | 0.0 | 0.00 | 0.00 | 0.00 | 87 | 1014.4 |
| 20260902053051 | 76 | 0 | 0.0 | 0.0 | 0.00 | 0.00 | 0.00 | 86 | 1014.4 |
| 20260902052538 | 76 | 0 | 0.0 | 0.0 | 0.00 | 0.00 | 0.00 | 86 | 1014.5 |
| 20260902052037 | 76 | 0 | 0.0 | 0.0 | 0.00 | 0.00 | 0.00 | 86 | 1014.5 |
| 20260902051558 | 76 | 0 | 0.0 | 0.0 | 0.00 | 0.00 | 0.00 | 86 | 1014.5 |
| 20260902051037 | 76 | 0 | 0.0 | 0.0 | 0.00 | 0.00 | 0.00 | 85 | 1014.4 |
| 20260902050537 | 77 | 0 | 0.0 | 0.0 | 0.00 | 0.00 | 0.00 | 85 | 1014.3 |
| 20260902050104 | 77 | 0 | 0.0 | 0.0 | 0.00 | 0.00 | 0.00 | 85 | 1014.3 |
| 20260902045540 | 77 | 0 | 0.0 | 0.0 | 0.00 | 0.00 | 0.00 | 85 | 1014.3 |
| 20260902045037 | 77 | 0 | 0.0 | 0.0 | 0.00 | 0.00 | 0.00 | 85 | 1014.3 |
| 20260902044552 | 77 | 0 | 0.0 | 0.0 | 0.00 | 0.00 | 0.00 | 85 | 1014.4 |
| 20260902044038 | 77 | 0 | 0.0 | 0.0 | 0.00 | 0.00 | 0.00 | 85 | 1014.4 |
| 20260902043538 | 77 | 0 | 0.0 | 0.0 | 0.00 | 0.00 | 0.00 | 84 | 1014.4 |
| 20260902043104 | 78 | 0 | 0.0 | 0.0 | 0.00 | 0.00 | 0.00 | 84 | 1014.5 |
| 20260902042538 | 78 | 0 | 0.0 | 0.0 | 0.00 | 0.00 | 0.00 | 84 | 1014.5 |
| 20260902042038 | 78 | 0 | 0.0 | 0.0 | 0.00 | 0.00 | 0.00 | 83 | 1014.5 |
| 20260902041607 | 78 | 0 | 0.0 | 0.0 | 0.00 | 0.00 | 0.00 | 83 | 1014.5 |
| 20260902041037 | 78 | 0 | 0.0 | 0.0 | 0.00 | 0.00 | 0.00 | 83 | 1014.6 |
| 20260902040537 | 78 | 0 | 0.0 | 0.0 | 0.00 | 0.00 | 0.00 | 83 | 1014.5 |
| 20260902040101 | 78 | 0 | 0.0 | 0.0 | 0.00 | 0.00 | 0.00 | 83 | 1014.6 |
| 20260902035536 | 78 | 0 | 0.0 | 0.0 | 0.00 | 0.00 | 0.00 | 82 | 1014.6 |
| 20260902035036 | 79 | 0 | 0.0 | 0.0 | 0.00 | 0.00 | 0.00 | 82 | 1014.5 |
| 20260902034554 | 79 | 0 | 0.0 | 0.0 | 0.00 | 0.00 | 0.00 | 82 | 1014.6 |
| 20260902034038 | 79 | 0 | 0.0 | 0.0 | 0.00 | 0.00 | 0.00 | 82 | 1014.7 |
| 20260902033537 | 79 | 0 | 0.0 | 0.0 | 0.00 | 0.00 | 0.00 | 82 | 1014.5 |
| 20260902033110 | 79 | 0 | 0.0 | 0.0 | 0.00 | 0.00 | 0.00 | 82 | 1014.5 |
| 20260902032538 | 79 | 0 | 0.0 | 0.0 | 0.00 | 0.00 | 0.00 | 82 | 1014.5 |
| 20260902032037 | 79 | 0 | 0.0 | 0.0 | 0.00 | 0.00 | 0.00 | 82 | 1014.5 |
| 20260902031602 | 79 | 0 | 0.0 | 0.0 | 0.00 | 0.00 | 0.00 | 81 | 1014.4 |
| 20260902031037 | 79 | 0 | 0.0 | 0.0 | 0.00 | 0.00 | 0.00 | 81 | 1014.2 |
| 20260902030537 | 79 | 0 | 0.0 | 0.0 | 0.00 | 0.00 | 0.00 | 81 | 1014.3 |
| 20260902030056 | 79 | 0 | 0.0 | 0.0 | 0.00 | 0.00 | 0.00 | 80 | 1014.3 |
| 20260902025537 | 80 | 0 | 0.0 | 0.0 | 0.00 | 0.00 | 0.00 | 80 | 1014.2 |
| 20260902025038 | 80 | 0 | 0.0 | 0.0 | 0.00 | 0.00 | 0.00 | 80 | 1014.2 |
| 20260902024552 | 80 | 0 | 0.0 | 0.0 | 0.00 | 0.00 | 0.00 | 79 | 1014.2 |
| 20260902024037 | 81 | 0 | 0.0 | 0.0 | 0.00 | 0.00 | 0.00 | 78 | 1014.2 |
| 20260902023537 | 81 | 0 | 0.0 | 0.0 | 0.00 | 0.00 | 0.00 | 78 | 1014.1 |
| 20260902023104 | 81 | 0 | 0.0 | 0.0 | 0.00 | 0.00 | 0.00 | 77 | 1013.9 |
| 20260902022555 | 81 | 0 | 0.0 | 0.0 | 0.00 | 0.00 | 0.00 | 76 | 1014.0 |
| 20260902022038 | 82 | 0 | 0.0 | 0.0 | 0.00 | 0.00 | 0.00 | 76 | 1013.9 |
| 20260902021616 | 82 | 0 | 0.0 | 0.0 | 0.00 | 0.00 | 0.00 | 75 | 1013.8 |
| 20260902021039 | 82 | 0 | 0.0 | 0.0 | 0.00 | 0.00 | 0.00 | 75 | 1013.9 |
| 20260902020541 | 83 | 0 | 0.0 | 0.0 | 0.00 | 0.00 | 0.00 | 74 | 1013.6 |
| 20260902020101 | 83 | 0 | 0.0 | 0.0 | 0.00 | 0.00 | 0.00 | 73 | 1013.5 |
| 20260902015538 | 83 | 0 | 0.0 | 0.0 | 0.00 | 0.00 | 0.00 | 73 | 1013.6 |
| 20260902015040 | 83 | 0 | 0.0 | 0.0 | 0.00 | 0.00 | 0.00 | 73 | 1013.6 |
| 20260902014553 | 83 | 0 | 0.0 | 0.0 | 0.00 | 0.00 | 0.00 | 72 | 1013.6 |
| 20260902014037 | 83 | 0 | 0.0 | 0.0 | 0.00 | 0.00 | 0.00 | 72 | 1013.4 |
| 20260902013538 | 84 | 0 | 0.0 | 0.0 | 0.00 | 0.00 | 0.00 | 72 | 1013.4 |
| 20260902013057 | 84 | 0 | 0.0 | 0.0 | 0.00 | 0.00 | 0.00 | 72 | 1013.4 |
| 20260902012537 | 84 | 0 | 0.0 | 0.0 | 0.00 | 0.00 | 0.00 | 71 | 1013.5 |
| 20260902012042 | 84 | 0 | 0.0 | 0.0 | 0.00 | 0.00 | 0.00 | 71 | 1013.5 |
| 20260902011605 | 84 | 0 | 0.0 | 0.0 | 0.00 | 0.00 | 0.00 | 70 | 1013.5 |
| 20260902011037 | 85 | 0 | 0.0 | 0.0 | 0.00 | 0.00 | 0.00 | 70 | 1013.3 |
| 20260902010539 | 85 | 0 | 0.0 | 0.0 | 0.00 | 0.00 | 0.00 | 69 | 1013.3 |
| 20260902005542 | 86 | 0 | 0.0 | 9.0 | 0.00 | 0.00 | 0.00 | 68 | 1013.4 |
| 20260902005037 | 86 | 0 | 0.0 | 9.0 | 0.00 | 0.00 | 0.00 | 67 | 1013.3 |
| 20260902004601 | 86 | 0 | 0.0 | 0.0 | 0.00 | 0.00 | 0.00 | 66 | 1013.5 |
| 20260902004039 | 87 | 0 | 0.0 | 1.0 | 0.00 | 0.00 | 0.00 | 65 | 1013.2 |
| 20260902003539 | 87 | 0 | 0.0 | 11.0 | 0.00 | 0.00 | 0.00 | 65 | 1013.4 |
| 20260902003100 | 87 | 0 | 0.0 | 11.0 | 0.00 | 0.00 | 0.00 | 64 | 1013.2 |
| 20260902002539 | 88 | 0 | 0.0 | 11.0 | 0.00 | 0.00 | 0.00 | 63 | 1013.0 |
| 20260902002040 | 88 | 0 | 0.0 | 9.0 | 0.00 | 0.00 | 0.00 | 62 | 1013.1 |
| 20260902001601 | 88 | 0 | 0.0 | 9.0 | 0.00 | 0.00 | 0.00 | 61 | 1013.3 |
| 20260902001039 | 89 | 61 | 1.0 | 16.0 | 0.00 | 0.00 | 0.00 | 61 | 1013.0 |
| 20260902000539 | 89 | 95 | 0.0 | 16.0 | 0.00 | 0.00 | 0.00 | 60 | 1012.9 |
| 20260902000104 | 90 | 0 | 1.0 | 10.0 | 0.00 | 0.00 | 0.00 | 59 | 1012.8 |
| 20260901235539 | 91 | 0 | 1.0 | 14.0 | 0.00 | 0.00 | 0.00 | 58 | 1012.8 |
| 20260901235039 | 92 | 0 | 0.0 | 14.0 | 0.00 | 0.00 | 0.00 | 57 | 1012.9 |
| 20260901234614 | 94 | 0 | 1.0 | 14.0 | 0.00 | 0.00 | 0.00 | 54 | 1012.8 |
| 20260901234044 | 96 | 0 | 2.0 | 14.0 | 0.00 | 0.00 | 0.00 | 49 | 1012.8 |
| 20260901233539 | 96 | 0 | 0.0 | 4.0 | 0.00 | 0.00 | 0.00 | 47 | 1012.5 |
| 20260901233053 | 96 | 0 | 0.0 | 4.0 | 0.00 | 0.00 | 0.00 | 47 | 1012.4 |
| 20260901232537 | 96 | 0 | 0.0 | 2.0 | 0.00 | 0.00 | 0.00 | 47 | 1012.5 |
| 20260901232037 | 96 | 0 | 0.0 | 7.0 | 0.00 | 0.00 | 0.00 | 48 | 1012.5 |
| 20260901231603 | 96 | 0 | 0.0 | 7.0 | 0.00 | 0.00 | 0.00 | 48 | 1012.5 |
| 20260901231036 | 96 | 0 | 0.0 | 6.0 | 0.00 | 0.00 | 0.00 | 48 | 1012.5 |
| 20260901230536 | 96 | 0 | 0.0 | 7.0 | 0.00 | 0.00 | 0.00 | 48 | 1012.7 |
| 20260901230137 | 96 | 0 | 0.0 | 7.0 | 0.00 | 0.00 | 0.00 | 48 | 1012.7 |
| 20260901225537 | 96 | 0 | 0.0 | 7.0 | 0.00 | 0.00 | 0.00 | 48 | 1012.7 |
| 20260901225036 | 96 | 0 | 0.0 | 7.0 | 0.00 | 0.00 | 0.00 | 47 | 1012.8 |
| 20260901224602 | 96 | 0 | 0.0 | 0.0 | 0.00 | 0.00 | 0.00 | 47 | 1012.7 |
| 20260901224041 | 96 | 0 | 0.0 | 1.0 | 0.00 | 0.00 | 0.00 | 48 | 1012.8 |
| 20260901223537 | 96 | 0 | 0.0 | 9.0 | 0.00 | 0.00 | 0.00 | 47 | 1012.9 |
| 20260901223119 | 96 | 0 | 0.0 | 9.0 | 0.00 | 0.00 | 0.00 | 47 | 1012.8 |
| 20260901222537 | 96 | 0 | 1.0 | 9.0 | 0.00 | 0.00 | 0.00 | 47 | 1012.8 |
| 20260901222036 | 96 | 0 | 0.0 | 7.0 | 0.00 | 0.00 | 0.00 | 47 | 1012.8 |
| 20260901221600 | 96 | 0 | 0.0 | 0.0 | 0.00 | 0.00 | 0.00 | 46 | 1012.9 |
| 20260901221039 | 96 | 0 | 0.0 | 1.0 | 0.00 | 0.00 | 0.00 | 46 | 1012.8 |
| 20260901220538 | 96 | 0 | 0.0 | 1.0 | 0.00 | 0.00 | 0.00 | 46 | 1012.8 |
| 20260901220108 | 96 | 0 | 0.0 | 0.0 | 0.00 | 0.00 | 0.00 | 45 | 1012.6 |
| 20260901215539 | 96 | 0 | 0.0 | 10.0 | 0.00 | 0.00 | 0.00 | 46 | 1012.8 |
| 20260901215038 | 96 | 0 | 0.0 | 10.0 | 0.00 | 0.00 | 0.00 | 45 | 1012.9 |
| 20260901214602 | 97 | 77 | 0.0 | 9.0 | 0.00 | 0.00 | 0.00 | 45 | 1013.0 |
| 20260901214038 | 98 | 83 | 0.0 | 9.0 | 0.00 | 0.00 | 0.00 | 44 | 1012.9 |
| 20260901213538 | 98 | 25 | 0.0 | 7.0 | 0.00 | 0.00 | 0.00 | 45 | 1012.9 |
| 20260901213105 | 97 | 0 | 0.0 | 7.0 | 0.00 | 0.00 | 0.00 | 46 | 1012.9 |
| 20260901212538 | 96 | 0 | 0.0 | 3.0 | 0.00 | 0.00 | 0.00 | 47 | 1012.9 |
| 20260901212038 | 96 | 0 | 0.0 | 5.0 | 0.00 | 0.00 | 0.00 | 48 | 1012.9 |
| 20260901211603 | 96 | 0 | 0.0 | 5.0 | 0.00 | 0.00 | 0.00 | 47 | 1013.0 |
| 20260901211039 | 96 | 0 | 0.0 | 3.0 | 0.00 | 0.00 | 0.00 | 46 | 1013.0 |
| 20260901210538 | 96 | 0 | 0.0 | 8.0 | 0.00 | 0.00 | 0.00 | 48 | 1013.2 |
| 20260901205537 | 97 | 0 | 1.0 | 12.0 | 0.00 | 0.00 | 0.00 | 47 | 1013.4 |
| 20260901205039 | 97 | 0 | 1.0 | 10.0 | 0.00 | 0.00 | 0.00 | 47 | 1013.5 |
| 20260901204606 | 98 | 0 | 0.0 | 12.0 | 0.00 | 0.00 | 0.00 | 45 | 1013.4 |
| 20260901204039 | 101 | 0 | 1.0 | 12.0 | 0.00 | 0.00 | 0.00 | 42 | 1013.6 |
| 20260901203539 | 101 | 0 | 0.0 | 6.0 | 0.00 | 0.00 | 0.00 | 43 | 1013.7 |
| 20260901203110 | 99 | 0 | 0.0 | 0.0 | 0.00 | 0.00 | 0.00 | 45 | 1013.6 |
| 20260901202539 | 99 | 0 | 0.0 | 0.0 | 0.00 | 0.00 | 0.00 | 46 | 1013.8 |
| 20260901202038 | 97 | 0 | 0.0 | 0.0 | 0.00 | 0.00 | 0.00 | 48 | 1014.1 |
| 20260901201607 | 96 | 0 | 0.0 | 3.0 | 0.00 | 0.00 | 0.00 | 48 | 1014.1 |
| 20260901201038 | 96 | 0 | 0.0 | 3.0 | 0.00 | 0.00 | 0.00 | 49 | 1014.4 |
| 20260901200537 | 96 | 55 | 0.0 | 0.0 | 0.00 | 0.00 | 0.00 | 49 | 1014.3 |
| 20260901200107 | 96 | 0 | 0.0 | 0.0 | 0.00 | 0.00 | 0.00 | 50 | 1014.3 |
| 20260901195538 | 96 | 0 | 0.0 | 0.0 | 0.00 | 0.00 | 0.00 | 50 | 1014.2 |
| 20260901195038 | 96 | 0 | 0.0 | 0.0 | 0.00 | 0.00 | 0.00 | 50 | 1014.3 |
| 20260901194604 | 96 | 0 | 0.0 | 0.0 | 0.00 | 0.00 | 0.00 | 50 | 1014.4 |
| 20260901194037 | 96 | 0 | 0.0 | 1.0 | 0.00 | 0.00 | 0.00 | 50 | 1014.5 |
| 20260901193540 | 96 | 0 | 0.0 | 8.0 | 0.00 | 0.00 | 0.00 | 51 | 1014.5 |
| 20260901193102 | 96 | 0 | 0.0 | 8.0 | 0.00 | 0.00 | 0.00 | 51 | 1014.6 |
| 20260901192538 | 95 | 0 | 0.0 | 0.0 | 0.00 | 0.00 | 0.00 | 51 | 1014.6 |
| 20260901192040 | 95 | 0 | 0.0 | 8.0 | 0.00 | 0.00 | 0.00 | 51 | 1014.5 |
| 20260901191605 | 95 | 0 | 0.0 | 10.0 | 0.00 | 0.00 | 0.00 | 51 | 1014.5 |
| 20260901191038 | 95 | 0 | 1.0 | 10.0 | 0.00 | 0.00 | 0.00 | 50 | 1014.5 |
| 20260901190538 | 97 | 0 | 1.0 | 11.0 | 0.00 | 0.00 | 0.00 | 49 | 1014.4 |
| 20260901190110 | 97 | 0 | 2.0 | 11.0 | 0.00 | 0.00 | 0.00 | 49 | 1014.6 |
| 20260901185539 | 96 | 38 | 0.0 | 9.0 | 0.00 | 0.00 | 0.00 | 50 | 1014.5 |
| 20260901185038 | 96 | 0 | 0.0 | 9.0 | 0.00 | 0.00 | 0.00 | 50 | 1014.5 |
| 20260901184601 | 96 | 0 | 0.0 | 8.0 | 0.00 | 0.00 | 0.00 | 50 | 1014.8 |
| 20260901184037 | 97 | 0 | 0.0 | 13.0 | 0.00 | 0.00 | 0.00 | 50 | 1014.7 |
| 20260901183536 | 97 | 93 | 1.0 | 13.0 | 0.00 | 0.00 | 0.00 | 50 | 1014.8 |
| 20260901183056 | 96 | 0 | 0.0 | 0.0 | 0.00 | 0.00 | 0.00 | 52 | 1015.1 |
| 20260901182539 | 95 | 0 | 0.0 | 0.0 | 0.00 | 0.00 | 0.00 | 53 | 1015.1 |
| 20260901182036 | 95 | 0 | 0.0 | 0.0 | 0.00 | 0.00 | 0.00 | 51 | 1015.3 |
| 20260901181605 | 95 | 0 | 0.0 | 0.0 | 0.00 | 0.00 | 0.00 | 52 | 1015.3 |
| 20260901181039 | 96 | 0 | 0.0 | 0.0 | 0.00 | 0.00 | 0.00 | 52 | 1015.3 |
| 20260901180537 | 93 | 0 | 0.0 | 0.0 | 0.00 | 0.00 | 0.00 | 56 | 1015.4 |
| 20260901175537 | 94 | 0 | 0.0 | 0.0 | 0.00 | 0.00 | 0.00 | 56 | 1015.6 |
| 20260901175036 | 94 | 0 | 0.0 | 1.0 | 0.00 | 0.00 | 0.00 | 54 | 1015.6 |
| 20260901174559 | 97 | 0 | 0.0 | 6.0 | 0.00 | 0.00 | 0.00 | 51 | 1015.9 |
| 20260901174039 | 97 | 0 | 0.0 | 10.0 | 0.00 | 0.00 | 0.00 | 52 | 1016.0 |
| 20260901173536 | 96 | 0 | 1.0 | 10.0 | 0.00 | 0.00 | 0.00 | 51 | 1016.0 |
| 20260901173111 | 97 | 0 | 0.0 | 7.0 | 0.00 | 0.00 | 0.00 | 51 | 1016.1 |
| 20260901172536 | 96 | 0 | 0.0 | 11.0 | 0.00 | 0.00 | 0.00 | 51 | 1016.0 |
| 20260901172036 | 96 | 0 | 0.0 | 11.0 | 0.00 | 0.00 | 0.00 | 51 | 1016.1 |
| 20260901171620 | 95 | 0 | 0.0 | 11.0 | 0.00 | 0.00 | 0.00 | 54 | 1016.3 |
| 20260901171040 | 94 | 0 | 0.0 | 11.0 | 0.00 | 0.00 | 0.00 | 54 | 1016.2 |
| 20260901170537 | 94 | 71 | 0.0 | 11.0 | 0.00 | 0.00 | 0.00 | 54 | 1016.4 |
| 20260901170105 | 95 | 0 | 0.0 | 9.0 | 0.00 | 0.00 | 0.00 | 53 | 1016.3 |
| 20260901165537 | 95 | 0 | 1.0 | 9.0 | 0.00 | 0.00 | 0.00 | 55 | 1016.4 |
| 20260901165039 | 95 | 0 | 0.0 | 10.0 | 0.00 | 0.00 | 0.00 | 56 | 1016.4 |
| 20260901164634 | 94 | 0 | 0.0 | 10.0 | 0.00 | 0.00 | 0.00 | 56 | 1016.4 |
| 20260901164040 | 95 | 59 | 1.0 | 11.0 | 0.00 | 0.00 | 0.00 | 57 | 1016.3 |
| 20260901163536 | 94 | 0 | 1.0 | 11.0 | 0.00 | 0.00 | 0.00 | 57 | 1016.5 |
| 20260901163104 | 94 | 0 | 0.0 | 3.0 | 0.00 | 0.00 | 0.00 | 58 | 1016.4 |
| 20260901162537 | 93 | 0 | 0.0 | 3.0 | 0.00 | 0.00 | 0.00 | 60 | 1016.4 |
| 20260901162037 | 92 | 0 | 0.0 | 0.0 | 0.00 | 0.00 | 0.00 | 60 | 1016.5 |
| 20260901161608 | 94 | 0 | 0.0 | 0.0 | 0.00 | 0.00 | 0.00 | 58 | 1016.5 |
| 20260901161036 | 93 | 0 | 0.0 | 0.0 | 0.00 | 0.00 | 0.00 | 61 | 1016.5 |
| 20260901160536 | 91 | 0 | 0.0 | 0.0 | 0.00 | 0.00 | 0.00 | 64 | 1016.5 |
| 20260901155538 | 90 | 0 | 0.0 | 0.0 | 0.00 | 0.00 | 0.00 | 65 | 1016.6 |
| 20260901155036 | 89 | 0 | 0.0 | 0.0 | 0.00 | 0.00 | 0.00 | 67 | 1016.6 |
| 20260901154601 | 90 | 0 | 0.0 | 0.0 | 0.00 | 0.00 | 0.00 | 67 | 1016.8 |
| 20260901154036 | 89 | 0 | 0.0 | 0.0 | 0.00 | 0.00 | 0.00 | 69 | 1016.8 |
| 20260901153539 | 90 | 0 | 0.0 | 0.0 | 0.00 | 0.00 | 0.00 | 67 | 1016.7 |
| 20260901153100 | 90 | 0 | 0.0 | 0.0 | 0.00 | 0.00 | 0.00 | 68 | 1016.8 |